Weather in Rokiškis

Lithuania     55°57′12″N   25°34′56″E
temp.,
°C
wind,
m/s
gust,
m/s
humid.,
%
clouds,
%
prec.,
mm/h
press.,
hPa
HPBL,
m
26 july, mon
mon2600:00+17se33568 0.0 101934
03:00+15ese356570 0.0 101966
06:00+15se34696 0.0 101960
09:00+22ese345015 0.0 1019285
12:00+27se3436100 0.0 10191748
15:00+29sse3431100 0.0 10182738
18:00+27sse5540100 0.0 10171427
21:00+22se3657100 0.0 1017120
27 july, tue
tue2700:00+20se366852 0.0 1018104
03:00+17ese37785 0.0 1017122
06:00+17ese3107825 0.0 1017193
09:00+24se61156100 0.0 1016593
12:00+24se51055100 0.0 1015888
15:00+28se7104587 0.1 10141750
18:00+26se61152100 0.1 1011867
21:00+20ssw3688100 2.6 1010126
28 july, wed
wed2800:00+19se41098100 22.8 1010429
03:00+18wsw4798100 24.6 1009403
06:00+16sw3899100 0.1 1009276
09:00+20wsw599074 0.1 1010603
12:00+25wsw69550 0.0 10101465
15:00+27w694415 0.0 10092367
18:00+24sw595960 0.0 1009824
21:00+21sw367813 0.0 1009111
29 july, thu
thu2900:00+19sw367942 0.0 1009115
03:00+17wsw359135 0.0 100992
06:00+17wsw397899 0.0 1009315
09:00+18wsw4107963 0.0 1008522
12:00+23wsw585843 0.0 10081559
15:00+21wsw696789 0.3 10081047
18:00+24w710536 0.3 10081922
21:00+19wsw410655 0.3 1008428
30 july, fri
fri3000:00+17wsw412773 0.0 1009442
03:00+15sw412870 0.0 1009394
06:00+14sw412890 0.0 1009341
09:00+19wsw58672 0.0 1008683
12:00+23sw574982 0.0 10081684
15:00+25wsw5843100 0.0 10062257
18:00+23s3553100 0.0 1004395
21:00+19s4118075 0.1 1002349